Cloud_Cover
60 74 37 4 0 4 22 97 48 5 6 5 5 5 11 8 0 0 0 0 0 0 0 0 1 5 5 0 2 0 0 0 0
5 5 16 5 6 80 99 46 20 86 28 10 2 0 0 0 0 0 0 0 0 0 0 0 1 5 5 5 5 5 5 0 0
0 73 34 18 12 9 0 4 9 10 5 5 2 0 0 0 0 0 0 0 0 0 0 2 5 5 5 5 5 5 1 5 0
5 100 100 54 5 6 0 10 5 4 1 0 0 0 0 0 0 0 0 0 0 0 4 5 5 5 5 5 5 5 5 5 5
5 9 100 37 24 16 5 2 5 0 0 0 2 0 0 0 0 0 0 0 0 0 5 5 5 5 5 5 5 5 5 3 5
0 2 81 5 21 38 5 7 3 0 5 4 2 0 0 0 0 0 0 5 5 5 5 5 21 65 6 5 5 5 0 2 5
0 0 5 1 1 3 5 5 5 4 10 5 0 0 0 0 0 4 5 5 5 5 5 9 100 100 8 5 5 1 0 0 3
0 21 13 10 4 4 5 5 5 1 0 0 0 0 0 5 5 5 5 5 5 5 5 100 100 100 64 20 5 5 4 5 5
43 0 0 0 0 0 0 0 0 0 7 0 0 0 5 7 5 5 5 5 6 28 100 100 100 100 25 5 5 5 5 5 5
0 0 0 0 0 0 0 0 0 0 0 4 5 2 6 8 5 6 5 6 91 100 100 100 100 60 12 5 5 5 5 5 5
8 2 8 2 3 2 0 0 2 0 5 5 5 9 5 37 68 9 5 92 100 100 100 100 99 69 5 5 5 5 5 5 5
87 100 36 5 5 5 5 18 24 58 46 40 9 5 19 45 81 7 16 59 100 100 100 100 58 5 28 62 40 5 5 5 5
5 6 17 5 19 6 5 12 87 100 100 100 100 100 83 49 30 5 5 5 32 100 100 100 6 5 30 7 87 29 5 5 5
5 5 5 5 15 5 5 45 27 14 18 36 17 5 5 3 4 3 1 62 100 100 100 70 52 20 12 6 69 92 5 5 5
37 58 76 62 66 49 55 37 39 38 18 5 5 5 3 0 3 42 97 50 96 94 100 88 65 53 40 77 13 90 100 93 99
100 100 100 100 100 100 100 100 100 100 100 95 100 96 85 100 100 62 98 92 9 38 35 51 58 76 78 100 78 98 50 100 100
100 100 100 100 100 100 100 100 100 100 100 100 100 100 100 98 100 99 23 9 45 36 5 28 31 62 100 100 100 100 100 100 100
100 100 99 100 100 100 100 100 100 77 100 97 100 80 78 79 83 82 56 6 49 79 98 80 79 75 100 100 100 100 100 100 100
100 100 100 100 100 98 100 100 100 100 100 100 98 67 89 84 89 99 69 62 78 82 87 93 64 100 62 100 100 99 37 100 98
100 100 100 100 100 100 100 100 100 98 93 100 100 95 79 100 99 91 98 88 73 66 97 97 93 100 99 56 7 99 100 100 100